AP-SC--CHS-SC S Weather Roundup, SC

000

ASUS42 KCHS 151527

RWRCHS

REGIONAL WEATHER ROUNDUP

NATIONAL WEATHER SERVICE CHARLESTON SC

1100 AM EDT WED JUL 15 2015

NOTE: "FAIR" INDICATES FEW OR NO CLOUDS BELOW 12,000 FEET WITH NO

SIGNIFICANT WEATHER AND/OR OBSTRUCTIONS TO VISIBILITY.

NOT ALL STATIONS ARE QUALITY CONTROLLED BY THE NATIONAL

WEATHER SERVICE. USE DATA WITH CAUTION...ESPECIALLY

DEWPOINT OBSERVATIONS.

SCZ027-030-031-034>040-042>050-151600-

...SOUTHEAST SOUTH CAROLINA...

CITY SKY/WX TMP DP RH WIND PRES REMARKS

N CHARLESTON MOSUNNY 89 70 53 W13G21 29.78F HX 94

WATERFRONT PRK N/A 86 72 62 W8 29.77F HX 92

MOUNT PLEASANT FAIR 90 72 55 W12G18 29.78S HX 96

JOHNS ISLAND FAIR 90 73 58 W15 29.79S HX 98

PINOPOLIS NOT AVBL

MONCKS CORNER FAIR 88 70 55 CALM 29.79F HX 92

SUMMERVILLE FAIR 86 72 62 W10 29.80F HX 92

BEAUFORT MCAS PTSUNNY 88 73 61 W14 29.81F HX 95

BEAUFORT ARPT FAIR 90 73 58 SW14G22 29.81S HAZE HX 98

HILTON HEAD IS MOSUNNY 84 77 79 SW13G18 29.84 HX 94

WALTERBORO MOSUNNY 90 68 48 W13 29.81F HX 93

ALLENDALE FAIR 86 72 62 VRB7 29.82F HX 92

...SOUTHERN MIDLANDS AND PEE DEE...

CITY SKY/WX TMP DP RH WIND PRES REMARKS

GEORGETOWN NOT AVBL

KINGSTREE NOT AVBL

ORANGEBURG MOSUNNY 84 68 58 W12 29.82F

BARNWELL FAIR 88 72 58 W8 29.83F HX 94

AIKEN FAIR 82 68 61 W8 29.87F

MANNING NOT AVBL

COLUMBIA MOSUNNY 87 68 52 W8 29.81S HX 90

SUMTER MOSUNNY 82 70 67 W8 29.79F

FLORENCE MOSUNNY 81 69 67 W7 29.78F

MYRTLE BEACH SUNNY 86 70 58 W17 29.78F HX 90

N MYRTLE BEACH SUNNY 86 69 56 W8 29.75F HX 90

$$

SCZ027-028-034-036>038-045-046-048>050-GAZ119-141-151600-

...LAKE AND SUPPLEMENTAL COASTAL OBSERVATIONS...

STATION/POSITION TIME TEMP WIND PRES WAVE SWELL

AIR SEA DIR/SP/G HT/PER HT/PER/DIR

(UTC) (F) (DEG/KT/KT) (MB) (FT/S) (FT/S/D)

UPR LAKE MARION NOT AVBL

WINYAH BAY 1445 84 270/ 11 1007.0F

LAKE MURRAY 1400 79 260/ 9/ 10 1009.5R

ACE BASIN NERRS 1400 84 260/ 5 1010.0

FORT PULASKI 1500 85 85 270/ 15/ 19 1010.7F

SAPELO ISLAND 1500 86 260/ 12 1011.0F

$$

Delivered by Weather Underground Inc. Wed Jul 15 2015 11:27AM EDT